Weather History for Wiscasset, ME

Change the Weather History Date:

Saturday, March 2, 2013

  Actual Average Record
Temperature  
Mean Temperature 34 °F -  
Max Temperature 39 °F 35 °F 51 °F (1998)
Min Temperature 30 °F 17 °F -5 °F (2001)
Degree Days  
Heating Degree Days 30    
Moisture  
Dew Point 30 °F    
Average Humidity 85    
Maximum Humidity 93    
Minimum Humidity 63    
Precipitation  
Precipitation 0.09 in - - ()
Sea Level Pressure  
Sea Level Pressure 29.63 in    
Wind  
Wind Speed 2 mph (NW)    
Max Wind Speed 6 mph    
Max Gust Speed -    
Visibility 5 miles    
Events Snow    
Averages and records for this station are not official NWS values.
T = Trace of Precipitation, MM = Missing Value Source: NWS Daily Summary

Daily Weather History Graph

Daily Weather History Graph

Search for Another Location

Airport:

Trip Planner

Search our weather history database for the weather conditions in past years. The results will help you decide how hot, cold, wet, or windy it might be!

Date:

Astronomy

Mar. 02, 2013 Rise Set
Actual Time 6:13 AM EST 5:28 PM EST
Civil Twilight 5:44 AM EST 5:57 PM EST
Nautical Twilight 5:11 AM EST 6:31 PM EST
Astronomical Twilight 4:38 AM EST 7:04 PM EST
Moon 11:17 PM EST (3/2) 8:27 AM EST (3/2)
Length of Visible Light 12h 13m
Length of Day
11h 15m
Waning Gibbous, 74% of the Moon is Illuminated
Mar 2
Waning Gibbous
Mar 4
Last Quarter
Mar 11
New
Mar 19
First Quarter
Mar 27
Full

Hourly Weather History & Observations

Time (EST) Temp. Windchill Dew Point Humidity Pressure Visibility Wind Dir Wind Speed Gust Speed Precip Events Conditions
12:00 AM 33.8 °F 30.8 °F 30.2 °F 87% 29.64 in 1.5 mi Variable 3.5 mph - 0.00 in Snow Light Snow
12:10 AM 33.8 °F - 30.2 °F 87% 29.64 in 2.0 mi Calm Calm - 0.00 in Snow Light Snow
12:42 AM 33.8 °F - 30.2 °F 87% 29.64 in 2.5 mi Calm Calm - 0.01 in Snow Light Snow
12:47 AM 33.8 °F - 30.2 °F 87% 29.64 in 3.0 mi Calm Calm - 0.01 in Snow Light Snow
12:53 AM 33.1 °F - 30.0 °F 89% 29.64 in 4.0 mi Calm Calm - 0.01 in Snow Light Snow
1:41 AM 33.8 °F - 30.2 °F 87% 29.63 in 4.0 mi Calm Calm - 0.00 in Snow Light Snow
1:53 AM 33.1 °F - 30.0 °F 89% 29.64 in 3.0 mi Calm Calm - 0.00 in Snow Light Snow
2:00 AM 33.8 °F 30.8 °F 30.2 °F 87% 29.63 in 2.5 mi NW 3.5 mph - 0.00 in Snow Light Snow
2:31 AM 33.8 °F 30.8 °F 30.2 °F 87% 29.63 in 1.8 mi Variable 3.5 mph - 0.01 in Snow Light Snow
2:36 AM 33.8 °F - 30.2 °F 87% 29.63 in 2.0 mi Calm Calm - 0.01 in Snow Light Snow
2:43 AM 32.0 °F - 30.2 °F 93% 29.63 in 2.5 mi Calm Calm - 0.01 in Snow Light Snow
2:47 AM 32.0 °F - 30.2 °F 93% 29.62 in 4.0 mi Calm Calm - 0.01 in Snow Light Snow
2:53 AM 32.0 °F - 30.0 °F 92% 29.63 in 6.0 mi Calm Calm - 0.01 in Snow Light Snow
3:53 AM 32.0 °F - 30.0 °F 92% 29.62 in 10.0 mi Calm Calm - 0.00 in   Overcast
4:53 AM 32.0 °F - 28.9 °F 88% 29.63 in 10.0 mi Calm Calm - N/A   Overcast
5:01 AM 32.0 °F - 28.4 °F 87% 29.62 in 10.0 mi Calm Calm - N/A   Overcast
5:53 AM 30.9 °F - 28.9 °F 92% 29.63 in 10.0 mi Calm Calm - N/A   Overcast
6:53 AM 32.0 °F - 28.9 °F 88% 29.64 in 10.0 mi Calm Calm - N/A   Overcast
7:53 AM 33.1 °F - 28.9 °F 85% 29.65 in 10.0 mi Calm Calm - N/A   Overcast
8:53 AM 34.0 °F 31.0 °F 28.9 °F 82% 29.65 in 10.0 mi Variable 3.5 mph - N/A   Overcast
9:53 AM 36.0 °F 32.1 °F 28.9 °F 76% 29.63 in 10.0 mi Variable 4.6 mph - N/A   Scattered Clouds
10:51 AM 37.4 °F 33.8 °F 30.2 °F 75% 29.62 in 10.0 mi Variable 4.6 mph - N/A   Overcast
10:53 AM 37.9 °F 34.4 °F 30.0 °F 73% 29.62 in 10.0 mi NNW 4.6 mph - N/A   Overcast
11:53 AM 39.0 °F 35.7 °F 28.0 °F 65% 29.62 in 10.0 mi Variable 4.6 mph - N/A   Overcast
12:53 PM 39.9 °F 35.8 °F 28.0 °F 63% 29.60 in 10.0 mi Variable 5.8 mph - N/A   Overcast
1:53 PM 39.0 °F 35.7 °F 28.0 °F 65% 29.61 in 10.0 mi Variable 4.6 mph - N/A   Overcast
2:53 PM 37.0 °F 34.5 °F 30.9 °F 79% 29.61 in 9.0 mi Variable 3.5 mph - 0.00 in Snow Light Snow
3:53 PM 37.0 °F 33.3 °F 30.9 °F 79% 29.62 in 10.0 mi Variable 4.6 mph - 0.01 in   Overcast
4:53 PM 36.0 °F 33.3 °F 30.9 °F 82% 29.63 in 10.0 mi Variable 3.5 mph - N/A   Overcast
5:13 PM 35.6 °F 32.8 °F 30.2 °F 81% 29.63 in 10.0 mi WNW 3.5 mph - N/A   Overcast
5:42 PM 35.6 °F - 32.0 °F 87% 29.64 in 8.0 mi Calm Calm - 0.00 in   Overcast
5:53 PM 35.1 °F 32.2 °F 30.9 °F 85% 29.65 in 10.0 mi Variable 3.5 mph - 0.00 in   Overcast
5:59 PM 33.8 °F 30.8 °F 30.2 °F 87% 29.65 in 10.0 mi Variable 3.5 mph - N/A   Overcast
6:45 PM 33.8 °F - 30.2 °F 87% 29.65 in 5.0 mi Calm Calm - 0.01 in Snow Light Snow
6:53 PM 34.0 °F - 30.9 °F 89% 29.65 in 3.0 mi Calm Calm - 0.01 in Snow Light Snow
6:59 PM 33.8 °F 30.8 °F 30.2 °F 87% 29.65 in 1.8 mi WNW 3.5 mph - 0.00 in Snow Light Snow
7:22 PM 33.8 °F - 30.2 °F 87% 29.64 in 2.0 mi Calm Calm - 0.01 in Snow Light Snow
7:25 PM 33.8 °F - 30.2 °F 87% 29.64 in 1.5 mi Calm Calm - 0.02 in Snow Light Snow
7:35 PM 33.8 °F 30.8 °F 30.2 °F 87% 29.64 in 1.2 mi Variable 3.5 mph - 0.02 in Snow Light Snow
8:01 PM 33.8 °F 30.8 °F 30.2 °F 87% 29.64 in 3.0 mi Variable 3.5 mph - 0.00 in Snow Light Snow
8:13 PM 33.8 °F 30.8 °F 30.2 °F 87% 29.64 in 8.0 mi Variable 3.5 mph - 0.00 in Snow Light Snow
8:48 PM 33.8 °F 29.6 °F 30.2 °F 87% 29.64 in 2.5 mi Variable 4.6 mph - 0.00 in Snow Light Snow
8:53 PM 33.1 °F 28.7 °F 30.9 °F 92% 29.65 in 2.0 mi Variable 4.6 mph - 0.00 in Snow Light Snow
9:01 PM 33.8 °F 29.6 °F 30.2 °F 87% 29.64 in 1.8 mi Variable 4.6 mph - 0.00 in Snow Light Snow
9:08 PM 33.8 °F - 30.2 °F 87% 29.64 in 2.0 mi Calm Calm - 0.00 in Snow Light Snow
9:27 PM 33.8 °F - 30.2 °F 87% 29.64 in 3.0 mi Calm Calm - 0.01 in Snow Light Snow
9:53 PM 33.1 °F - 30.9 °F 92% 29.63 in 5.0 mi Calm Calm - 0.01 in Snow Light Snow
10:34 PM 33.8 °F - 30.2 °F 87% 29.63 in 1.8 mi Calm Calm - 0.00 in Snow Light Snow
10:53 PM 33.1 °F - 30.9 °F 92% 29.62 in 1.5 mi Calm Calm - 0.01 in Snow Light Snow
11:02 PM 33.8 °F - 30.2 °F 87% 29.62 in 1.8 mi Calm Calm - 0.01 in Snow Light Snow
11:37 PM 33.8 °F - 30.2 °F 87% 29.62 in 1.2 mi Calm Calm - 0.02 in Snow Light Snow
11:44 PM 33.8 °F - 30.2 °F 87% 29.62 in 1.8 mi Calm Calm - 0.02 in Snow Light Snow
11:53 PM 33.1 °F - 30.9 °F 92% 29.62 in 1.8 mi Calm Calm - 0.03 in Snow Light Snow